Hanjin Madrid — DHQS — position and weather

sailwx.info

Track history (hours):
 
Tides and Currents Weather Stations Pressure Air Temp Water Temp Dewpoint Dewpoint Depression Visibility Wind Speed Wind Dir Waves Ship Positions

Hanjin Madrid

Last reported at 2014-Nov-24 00:00 UTC. Time now 2014-Nov-24 12:16 UTC.
Position N 04°12' E 099°18'.

Length 278.9 m; beam 40.3 m; draft 14 m.

Type: Ship. MMSI: 211424430.

Wind from 060 at 13 knots

Barometer 1009.0 mb
Air temperature 26.5 ° C
Visibility: greater than 10.8 NM
Dewpoint 23.0 ° C
Water temperature 27.0 ° C

Date/timePositionNaut miles runAvg speedWind from/ knotsBaromVisibWave heightAir tempDewpointWater temp
2014-Nov-24 00:00N 04°12' E 099°18'31019.6 060 / 131009.010.8 26.523.027.0
2014-Nov-23 08:10N 01°12' E 103°30'914.5
2014-Nov-23 07:32N 01°12' E 103°39'7 7.0
2014-Nov-23 06:32N 01°16' E 103°45'1 1.3
2014-Nov-23 05:31N 01°17' E 103°47'0 0.0
2014-Nov-23 04:31N 01°17' E 103°47'0 0.0
2014-Nov-23 03:31N 01°17' E 103°47'0 0.0
2014-Nov-23 02:31N 01°17' E 103°47'0 0.0
2014-Nov-23 01:31N 01°17' E 103°47'0 0.0
2014-Nov-23 00:31N 01°17' E 103°47'0 0.0
2014-Nov-22 23:31N 01°17' E 103°47'0 0.0
2014-Nov-22 22:31N 01°17' E 103°47'0 0.0
2014-Nov-22 21:25N 01°17' E 103°47'0 0.0
2014-Nov-22 20:31N 01°17' E 103°47'0 0.0
2014-Nov-22 19:31N 01°17' E 103°47'0 0.0
2014-Nov-22 18:31N 01°17' E 103°47'0 0.0
2014-Nov-22 17:25N 01°17' E 103°47'0 0.0
2014-Nov-22 16:31N 01°17' E 103°47'0 0.0
2014-Nov-22 15:31N 01°17' E 103°47'0 0.0
2014-Nov-22 14:31N 01°17' E 103°47'0 0.0
2014-Nov-22 13:31N 01°17' E 103°47'0 0.0
2014-Nov-22 12:31N 01°17' E 103°47'0 0.3
2014-Nov-22 11:33N 01°16' E 103°47'4 3.7
2014-Nov-22 10:33N 01°13' E 103°48'8 7.7
2014-Nov-22 09:33N 01°14' E 103°56'1110.9
2014-Nov-22 08:33N 01°17' E 104°06'12514.6
2014-Nov-22 00:00N 03°06' E 105°06'37420.8 060 / 41009.010.8 28.023.927.0
2014-Nov-21 06:00N 08°12' E 108°42'12821.3 050 / 151009.0 5.4 26.021.826.0
2014-Nov-21 00:00N 09°54' E 110°00'37120.6 050 / 231010.010.8 28.026.726.0
2014-Nov-20 06:00N 15°18' E 113°06'12220.4 050 / 221012.010.8 31.027.126.0
2014-Nov-20 00:00N 17°06' E 114°06'36020.0 050 / 181014.0 5.4 25.022.225.0
2014-Nov-19 06:00N 22°24' E 117°06'8122.1 040 / 221019.010.8 23.016.921.0
2014-Nov-19 02:19N 23°31' E 117°56'1620.9
2014-Nov-19 01:33N 23°42' E 118°09'2020.1
2014-Nov-19 00:33N 23°56' E 118°24'5120.4
2014-Nov-18 22:04N 24°28' E 119°07'1019.6
2014-Nov-18 21:33N 24°35' E 119°15'34919.2
2014-Nov-18 03:22N 29°30' E 122°46'2010.8
2014-Nov-18 01:32N 29°49' E 122°49'1715.7
2014-Nov-18 00:28N 30°06' E 122°49'612.3
2014-Nov-18 00:00N 30°12' E 122°48'716.0 020 / 161029.0 5.4 17.010.019.0
2014-Nov-17 23:33N 30°19' E 122°49'1310.4
2014-Nov-17 22:21N 30°29' E 122°39'1212.3
2014-Nov-17 21:22N 30°31' E 122°25'910.6
2014-Nov-17 20:33N 30°33' E 122°16'1111.5
2014-Nov-17 19:33N 30°37' E 122°03'1 0.6
2014-Nov-17 18:31N 30°38' E 122°03'0 0.0
2014-Nov-17 17:31N 30°38' E 122°03'0 0.0
2014-Nov-17 16:31N 30°38' E 122°03'0 0.0
2014-Nov-17 15:31N 30°38' E 122°03'0 0.0
2014-Nov-17 14:31N 30°38' E 122°03'0 0.0
2014-Nov-17 13:31N 30°38' E 122°03'0 0.0
2014-Nov-17 12:31N 30°38' E 122°03'0 0.0
2014-Nov-17 11:31N 30°38' E 122°03'0 0.0
2014-Nov-17 10:31N 30°38' E 122°03'0 0.0
2014-Nov-17 09:31N 30°38' E 122°03'0 0.0
2014-Nov-17 08:25N 30°38' E 122°03'0 0.0
2014-Nov-17 07:31N 30°38' E 122°03'0 0.0
2014-Nov-17 06:28N 30°38' E 122°03'0 0.0
2014-Nov-17 05:28N 30°38' E 122°03'0 0.0
2014-Nov-17 04:31N 30°38' E 122°03'0 0.0
2014-Nov-17 03:31N 30°38' E 122°03'0 0.0
2014-Nov-17 02:28N 30°38' E 122°03'0 0.0
2014-Nov-17 01:31N 30°38' E 122°03'0 0.0
2014-Nov-17 00:31N 30°38' E 122°03'0 0.0
2014-Nov-16 23:25N 30°38' E 122°03'0 0.0
2014-Nov-16 22:28N 30°38' E 122°03'0 0.0
2014-Nov-16 21:28N 30°38' E 122°03'3 3.0
2014-Nov-16 20:33N 30°36' E 122°06'1111.0
2014-Nov-16 19:33N 30°33' E 122°18'7 6.7
2014-Nov-16 18:33N 30°32' E 122°25'12 1.9
2014-Nov-16 12:00N 30°24' E 122°36'5 0.6 360 / 211024.0 16.014.418.0
2014-Nov-16 04:19N 30°28' E 122°37'1 0.4
2014-Nov-16 02:14N 30°29' E 122°38'1810.3
2014-Nov-16 00:27N 30°13' E 122°50'716.1
2014-Nov-16 00:00N 30°06' E 122°48'1711.6 100 / 91024.0 5.4 18.013.117.0
2014-Nov-15 22:33N 29°50' E 122°43'1312.8
2014-Nov-15 21:33N 29°44' E 122°30'1010.2
2014-Nov-15 20:33N 29°45' E 122°18'1111.3
2014-Nov-15 19:33N 29°54' E 122°10'6 1.4
2014-Nov-15 15:31N 29°53' E 122°03'0 0.0
2014-Nov-15 13:19N 29°53' E 122°03'0 0.0
2014-Nov-15 12:25N 29°53' E 122°03'0 0.0
2014-Nov-15 11:31N 29°53' E 122°03'0 0.0
2014-Nov-15 10:31N 29°53' E 122°03'0 0.0
2014-Nov-15 09:31N 29°53' E 122°03'0 0.0
2014-Nov-15 08:31N 29°53' E 122°03'0 0.0
2014-Nov-15 07:31N 29°53' E 122°03'0 0.0
2014-Nov-15 06:31N 29°53' E 122°03'0 0.0
2014-Nov-15 05:13N 29°53' E 122°03'0 0.0
2014-Nov-15 01:25N 29°53' E 122°03'0 0.0
2014-Nov-15 00:31N 29°53' E 122°03'0 0.0
2014-Nov-14 22:25N 29°53' E 122°03'0 0.0
2014-Nov-14 19:19N 29°53' E 122°03'3 4.2
2014-Nov-14 18:33N 29°55' E 122°06'1110.9
2014-Nov-14 17:33N 29°48' E 122°16'8 7.7
2014-Nov-14 16:34N 29°43' E 122°22'1 0.8
2014-Nov-14 15:32N 29°42' E 122°23'0 0.0
2014-Nov-14 14:07N 29°42' E 122°23'0 0.0
2014-Nov-14 09:31N 29°42' E 122°23'0 0.0
2014-Nov-14 05:33N 29°42' E 122°23'7 7.4
2014-Nov-14 04:34N 29°35' E 122°27'1312.6
2014-Nov-14 03:33N 29°23' E 122°28'4713.2
2014-Nov-14 00:00N 28°36' E 122°24'   040 / 181021.010.8 1.018.0 9.220.0
Track history (hours):
 
Tides and Currents Weather Stations Pressure Air Temp Water Temp Dewpoint Dewpoint Depression Visibility Wind Speed Wind Dir Waves Ship Positions

Hanjin Madrid

Last reported at 2014-Nov-24 00:00 UTC. Time now 2014-Nov-24 12:16 UTC.
Position N 04°12' E 099°18'.

Length 278.9 m; beam 40.3 m; draft 14 m.

Type: Ship. MMSI: 211424430.

Wind from 060 at 13 knots

Barometer 1009.0 mb
Air temperature 26.5 ° C
Visibility: greater than 10.8 NM
Dewpoint 23.0 ° C
Water temperature 27.0 ° C

Date/timePositionNaut miles runAvg speedWind from/ knotsBaromVisibWave heightAir tempDewpointWater temp
2014-Nov-24 00:00N 04°12' E 099°18'31019.6 060 / 131009.010.8 26.523.027.0
2014-Nov-23 08:10N 01°12' E 103°30'914.5
2014-Nov-23 07:32N 01°12' E 103°39'7 7.0
2014-Nov-23 06:32N 01°16' E 103°45'1 1.3
2014-Nov-23 05:31N 01°17' E 103°47'0 0.0
2014-Nov-23 04:31N 01°17' E 103°47'0 0.0
2014-Nov-23 03:31N 01°17' E 103°47'0 0.0
2014-Nov-23 02:31N 01°17' E 103°47'0 0.0
2014-Nov-23 01:31N 01°17' E 103°47'0 0.0
2014-Nov-23 00:31N 01°17' E 103°47'0 0.0
2014-Nov-22 23:31N 01°17' E 103°47'0 0.0
2014-Nov-22 22:31N 01°17' E 103°47'0 0.0
2014-Nov-22 21:25N 01°17' E 103°47'0 0.0
2014-Nov-22 20:31N 01°17' E 103°47'0 0.0
2014-Nov-22 19:31N 01°17' E 103°47'0 0.0
2014-Nov-22 18:31N 01°17' E 103°47'0 0.0
2014-Nov-22 17:25N 01°17' E 103°47'0 0.0
2014-Nov-22 16:31N 01°17' E 103°47'0 0.0
2014-Nov-22 15:31N 01°17' E 103°47'0 0.0
2014-Nov-22 14:31N 01°17' E 103°47'0 0.0
2014-Nov-22 13:31N 01°17' E 103°47'0 0.0
2014-Nov-22 12:31N 01°17' E 103°47'0 0.3
2014-Nov-22 11:33N 01°16' E 103°47'4 3.7
2014-Nov-22 10:33N 01°13' E 103°48'8 7.7
2014-Nov-22 09:33N 01°14' E 103°56'1110.9
2014-Nov-22 08:33N 01°17' E 104°06'12514.6
2014-Nov-22 00:00N 03°06' E 105°06'37420.8 060 / 41009.010.8 28.023.927.0
2014-Nov-21 06:00N 08°12' E 108°42'12821.3 050 / 151009.0 5.4 26.021.826.0
2014-Nov-21 00:00N 09°54' E 110°00'37120.6 050 / 231010.010.8 28.026.726.0
2014-Nov-20 06:00N 15°18' E 113°06'12220.4 050 / 221012.010.8 31.027.126.0
2014-Nov-20 00:00N 17°06' E 114°06'36020.0 050 / 181014.0 5.4 25.022.225.0
2014-Nov-19 06:00N 22°24' E 117°06'8122.1 040 / 221019.010.8 23.016.921.0
2014-Nov-19 02:19N 23°31' E 117°56'1620.9
2014-Nov-19 01:33N 23°42' E 118°09'2020.1
2014-Nov-19 00:33N 23°56' E 118°24'5120.4
2014-Nov-18 22:04N 24°28' E 119°07'1019.6
2014-Nov-18 21:33N 24°35' E 119°15'34919.2
2014-Nov-18 03:22N 29°30' E 122°46'2010.8
2014-Nov-18 01:32N 29°49' E 122°49'1715.7
2014-Nov-18 00:28N 30°06' E 122°49'612.3
2014-Nov-18 00:00N 30°12' E 122°48'716.0 020 / 161029.0 5.4 17.010.019.0
2014-Nov-17 23:33N 30°19' E 122°49'1310.4
2014-Nov-17 22:21N 30°29' E 122°39'1212.3
2014-Nov-17 21:22N 30°31' E 122°25'910.6
2014-Nov-17 20:33N 30°33' E 122°16'1111.5
2014-Nov-17 19:33N 30°37' E 122°03'1 0.6
2014-Nov-17 18:31N 30°38' E 122°03'0 0.0
2014-Nov-17 17:31N 30°38' E 122°03'0 0.0
2014-Nov-17 16:31N 30°38' E 122°03'0 0.0
2014-Nov-17 15:31N 30°38' E 122°03'0 0.0
2014-Nov-17 14:31N 30°38' E 122°03'0 0.0
2014-Nov-17 13:31N 30°38' E 122°03'0 0.0
2014-Nov-17 12:31N 30°38' E 122°03'0 0.0
2014-Nov-17 11:31N 30°38' E 122°03'0 0.0
2014-Nov-17 10:31N 30°38' E 122°03'0 0.0
2014-Nov-17 09:31N 30°38' E 122°03'0 0.0
2014-Nov-17 08:25N 30°38' E 122°03'0 0.0
2014-Nov-17 07:31N 30°38' E 122°03'0 0.0
2014-Nov-17 06:28N 30°38' E 122°03'0 0.0
2014-Nov-17 05:28N 30°38' E 122°03'0 0.0
2014-Nov-17 04:31N 30°38' E 122°03'0 0.0
2014-Nov-17 03:31N 30°38' E 122°03'0 0.0
2014-Nov-17 02:28N 30°38' E 122°03'0 0.0
2014-Nov-17 01:31N 30°38' E 122°03'0 0.0
2014-Nov-17 00:31N 30°38' E 122°03'0 0.0
2014-Nov-16 23:25N 30°38' E 122°03'0 0.0
2014-Nov-16 22:28N 30°38' E 122°03'0 0.0
2014-Nov-16 21:28N 30°38' E 122°03'3 3.0
2014-Nov-16 20:33N 30°36' E 122°06'1111.0
2014-Nov-16 19:33N 30°33' E 122°18'7 6.7
2014-Nov-16 18:33N 30°32' E 122°25'12 1.9
2014-Nov-16 12:00N 30°24' E 122°36'5 0.6 360 / 211024.0 16.014.418.0
2014-Nov-16 04:19N 30°28' E 122°37'1 0.4
2014-Nov-16 02:14N 30°29' E 122°38'1810.3
2014-Nov-16 00:27N 30°13' E 122°50'716.1
2014-Nov-16 00:00N 30°06' E 122°48'1711.6 100 / 91024.0 5.4 18.013.117.0
2014-Nov-15 22:33N 29°50' E 122°43'1312.8
2014-Nov-15 21:33N 29°44' E 122°30'1010.2
2014-Nov-15 20:33N 29°45' E 122°18'1111.3
2014-Nov-15 19:33N 29°54' E 122°10'6 1.4
2014-Nov-15 15:31N 29°53' E 122°03'0 0.0
2014-Nov-15 13:19N 29°53' E 122°03'0 0.0
2014-Nov-15 12:25N 29°53' E 122°03'0 0.0
2014-Nov-15 11:31N 29°53' E 122°03'0 0.0
2014-Nov-15 10:31N 29°53' E 122°03'0 0.0
2014-Nov-15 09:31N 29°53' E 122°03'0 0.0
2014-Nov-15 08:31N 29°53' E 122°03'0 0.0
2014-Nov-15 07:31N 29°53' E 122°03'0 0.0
2014-Nov-15 06:31N 29°53' E 122°03'0 0.0
2014-Nov-15 05:13N 29°53' E 122°03'0 0.0
2014-Nov-15 01:25N 29°53' E 122°03'0 0.0
2014-Nov-15 00:31N 29°53' E 122°03'0 0.0
2014-Nov-14 22:25N 29°53' E 122°03'0 0.0
2014-Nov-14 19:19N 29°53' E 122°03'3 4.2
2014-Nov-14 18:33N 29°55' E 122°06'1110.9
2014-Nov-14 17:33N 29°48' E 122°16'8 7.7
2014-Nov-14 16:34N 29°43' E 122°22'1 0.8
2014-Nov-14 15:32N 29°42' E 122°23'0 0.0
2014-Nov-14 14:07N 29°42' E 122°23'0 0.0
2014-Nov-14 09:31N 29°42' E 122°23'0 0.0
2014-Nov-14 05:33N 29°42' E 122°23'7 7.4
2014-Nov-14 04:34N 29°35' E 122°27'1312.6
2014-Nov-14 03:33N 29°23' E 122°28'4713.2
2014-Nov-14 00:00N 28°36' E 122°24'   040 / 181021.010.8 1.018.0 9.220.0

Dump ship's entire track history